Starlink 32582

operational
NORAD ID: 62033 Int'l Des: 2024-216 Owner: SPXS Country: US Constellation: starlink
LEOCIRCULAR

关于 Starlink 32582

正在加载描述...

实时位置

正在加载3D地球...

即将过境

高度历史

Altitude vs Time

uPlot chart will show altitude changes over time

两行轨道根数

1 62033U 24216B 25306.17959519 .00023221 00000-0 85023-3 0 9992
2 62033 42.9983 263.4390 0001497 289.4428 70.6262 15.27597499 54297
Epoch: Nov 2, 2025 • Age: 18 hours

当前状态

高度 495.3 km
速度 7.62 km/s
星下点 -43.15°S, 144.11°E
发射日期 Nov 21, 2024
运行时间 0.9 years
类型 internet

技术详情

分类 Payload
质量 730.00 kg
干质量 700.00 kg
总质量 730.00 kg
长度 0.30 m
直径 4.10 m
跨度 29.00 m
形状 Box + pan
制造商 SPXS
平台类型 Starlink V2M
阶段状态 In Orbit
所有者/国家 SPXS/US

大型星座

Loading constellations...